Regional Weather Roundup
Issued by NWS Midland/Odessa, TX

Home | Current Version | Previous Version | Text Only | Print | Product List | Glossary On
Versions: 1 2 3 4 5 6 7 8 9 10 11 12 13 14 15 16 17 18 19 20 21 22 23 24 25 26 27 28 29 30 31 32 33 34 35 36 37 38 39 40 41 42 43 44 45 46 47 48 49 50
000
ASUS44 KMAF 250210
RWRMAF
MIDLAND AREA WEATHER ROUNDUP
NATIONAL WEATHER SERVICE MIDLAND TX
900 PM CDT WED AUG 24 2016

...IN SOUTHWEST TEXAS AND SOUTHEAST NEW MEXICO...

CITY           SKY/WX    TMP DP  RH WIND       PRES   REMARKS
ALPINE         MOCLDY    71  66  84 CALM      30.22R
ANDREWS        NOT AVBL
ARTESIA        PTCLDY    72  64  78 S10       30.05R
BIG SPRING     CLEAR     73  70  91 E6        30.08S
CARLSBAD       CLEAR     71  65  81 SE8       30.05R
DRYDEN           N/A     84  64  50 SE9       30.03S
FORT STOCKTON  MOCLDY    73  64  73 SE6       30.08S
GUAD PASS      CLEAR     68  62  81 NE14      30.20R
HOBBS          CLOUDY    68  66  94 SE7       30.11R
MARFA          CLOUDY   N/A N/A N/A CALM      30.19R
MIDLAND AIRPK  CLEAR     76  63  63 CALM      30.08R
MIDLAND INTL   CLEAR     77  62  59 CALM      30.07R
ODESSA         TSTM      69  64  84 NW8G20    30.10R
PECOS          PTCLDY    73  68  84 E5        30.06R
PRESIDIO       NOT AVBL
SEMINOLE       MOCLDY    70  61  74 CALM      30.11S
SNYDER           N/A     72  65  80 CALM      30.06R
WINK           CLEAR     71  66  84 E3        30.06R
$$
...OTHER STATIONS IN TEXAS...

CITY           SKY/WX    TMP DP  RH WIND       PRES   REMARKS
ABILENE        CLEAR     81  66  60 S9        30.04R
AMARILLO       CLEAR     75  59  57 S14       30.07R
AUSTIN         PTCLDY    85  74  69 SE8       30.03R
BROWNSVILLE    CLEAR     83  75  77 SE9       30.02R
CORPUS CHRISTI PTCLDY    84  76  76 SE12      30.02R
DALLAS FTW     PTCLDY    87  68  52 S13       30.02R
DEL RIO        CLEAR     85  65  51 E8        29.97R
EL PASO        PTCLDY    85  48  27 SW6       30.03R
HOUSTON INT    PTCLDY    82  75  79 SE7       30.06R
LUBBOCK        MOCLDY    71  62  73 S7        30.08R
SAN ANGELO     CLEAR     84  63  49 SE6       30.03R
SAN ANTONIO    PTCLDY    83  69  62 SE12      30.04R
WACO           CLEAR     84  71  65 SE8       30.04R
WICHITA FALLS  NOT AVBL
$$
...OTHER LOCATIONS IN NEW MEXICO...

CITY           SKY/WX    TMP DP  RH WIND       PRES   REMARKS
ALAMAGORDO     CLEAR     81  45  28 W3        30.06R
ALBUQUERQUE    PTCLDY    73  47  39 N9        30.17R
CANNON AFB     CLEAR     73  54  51 S8        30.09R
CLOVIS         CLEAR     72  52  49 S8        30.09R
HOLLOMAN AFB   PTCLDY    83  46  27 SW3       30.03R
ROSWELL        PTCLDY    70  62  76 S6        30.04F
RUIDOSO          N/A     61  54  77 S7        30.28R
SANTA FE       CLEAR     61  47  59 N7        30.23R
TRUTH OR CONSE LGT RAIN  73  52  47 SW14G23   30.13R
TUCUMCARI      MOCLDY    75  52  44 MISG      30.07R
$$



USA.gov is the U.S. government's official web portal to all federal, state and local government web resources and services.